Location: Days
(41.3591°N, 106.7339°W)
Time: 19:33:12
(UTC+00:00)

First-Move - Pass Details

Date: 07 July 2022
Orbit: 572 x 658 km, 97.6° (Epoch: 07 August)

Event Time Altitude Azimuth Distance (km) Brightness Sun altitude
Rises 10:49:07 0° 17° (NNE) 2,975 ? -8.7°
Reaches altitude 10° 10:51:23 10° 23° (NNE) 2,068 ? -8.4°
Maximum altitude 10:55:48 52° 99° (E) 823 ? -7.7°
Drops below altitude 10° 11:00:13 10° 176° (S) 2,065 ? -7.1°
Sets 11:02:28 0° 181° (S) 2,971 ? -6.7°
